| time (UTC) | temp F | wind direction | speed MPH | gust MPH | rain 1hr in | rain 24hr in | rain mn in | humidity % | barometer mb |
| 20260905223117 | 51 | 0.0 | 0.0 | 0.00 | 0.33 | 0.05 | 92 | 1013.1 | |
| 20260905222137 | 50 | 0.0 | 0.0 | 0.00 | 0.33 | 0.05 | 92 | 1013.0 | |
| 20260905221117 | 50 | 0.0 | 0.0 | 0.00 | 0.33 | 0.05 | 92 | 1013.0 | |
| 20260905220117 | 49 | 0.0 | 0.0 | 0.00 | 0.34 | 0.05 | 92 | 1012.8 | |
| 20260905215117 | 47 | 0.0 | 0.0 | 0.00 | 0.34 | 0.05 | 92 | 1012.7 | |
| 20260905214137 | 47 | 0.0 | 1.0 | 0.00 | 0.34 | 0.05 | 92 | 1012.3 | |
| 20260905213117 | 47 | 0.0 | 0.0 | 0.00 | 0.34 | 0.05 | 92 | 1012.2 | |
| 20260905212116 | 47 | 0.0 | 0.0 | 0.00 | 0.35 | 0.05 | 92 | 1012.2 | |
| 20260905211117 | 46 | 0.0 | 0.0 | 0.00 | 0.35 | 0.05 | 92 | 1011.9 | |
| 20260905210117 | 46 | 0.0 | 0.0 | 0.00 | 0.35 | 0.05 | 92 | 1011.7 | |
| 20260905205137 | 46 | 0.0 | 1.0 | 0.00 | 0.35 | 0.05 | 92 | 1011.5 | |
| 20260905204117 | 47 | 0.0 | 0.0 | 0.00 | 0.35 | 0.05 | 92 | 1011.2 | |
| 20260905203117 | 47 | 0.0 | 1.0 | 0.00 | 0.35 | 0.05 | 92 | 1011.0 | |
| 20260905202117 | 47 | 0.0 | 0.0 | 0.00 | 0.35 | 0.05 | 92 | 1010.8 | |
| 20260905201117 | 48 | 0.0 | 0.0 | 0.00 | 0.35 | 0.05 | 92 | 1010.6 | |
| 20260905200116 | 48 | 0.0 | 0.0 | 0.00 | 0.35 | 0.05 | 92 | 1010.5 | |
| 20260905195136 | 49 | 0.0 | 0.0 | 0.00 | 0.35 | 0.05 | 92 | 1010.4 | |
| 20260905194116 | 50 | 0.0 | 0.0 | 0.00 | 0.35 | 0.05 | 92 | 1010.1 | |
| 20260905193117 | 50 | 0.0 | 1.0 | 0.00 | 0.35 | 0.05 | 92 | 1010.2 | |
| 20260905192117 | 49 | 0.0 | 0.0 | 0.00 | 0.35 | 0.05 | 92 | 1009.9 | |
| 20260905191117 | 49 | 0.0 | 0.0 | 0.00 | 0.35 | 0.05 | 92 | 1009.9 | |
| 20260905190116 | 49 | 0.0 | 0.0 | 0.00 | 0.35 | 0.05 | 92 | 1009.8 | |
| 20260905185137 | 49 | 0.0 | 0.0 | 0.00 | 0.35 | 0.05 | 92 | 1009.5 | |
| 20260905184117 | 50 | 0.0 | 0.0 | 0.00 | 0.35 | 0.05 | 92 | 1009.2 | |
| 20260905183116 | 50 | 0.0 | 0.0 | 0.00 | 0.35 | 0.05 | 92 | 1009.0 | |
| 20260905182117 | 50 | 0.0 | 0.0 | 0.00 | 0.35 | 0.05 | 92 | 1009.0 | |
| 20260905181116 | 50 | 0.0 | 0.0 | 0.00 | 0.35 | 0.05 | 92 | 1008.5 | |
| 20260905180116 | 50 | 0.0 | 0.0 | 0.00 | 0.35 | 0.05 | 92 | 1008.3 | |
| 20260905175117 | 50 | 0.0 | 0.0 | 0.00 | 0.35 | 0.05 | 92 | 1008.2 | |
| 20260905174117 | 51 | 0.0 | 0.0 | 0.00 | 0.35 | 0.05 | 92 | 1007.9 | |
| 20260905173116 | 51 | 0.0 | 0.0 | 0.01 | 0.35 | 0.05 | 92 | 1007.7 | |
| 20260905172117 | 51 | 0.0 | 0.0 | 0.02 | 0.35 | 0.05 | 92 | 1007.3 | |
| 20260905171116 | 51 | 0.0 | 0.0 | 0.02 | 0.35 | 0.05 | 92 | 1007.2 | |
| 20260905170117 | 51 | 0.0 | 0.0 | 0.03 | 0.35 | 0.05 | 92 | 1007.1 | |
| 20260905165116 | 52 | 0.0 | 0.0 | 0.03 | 0.35 | 0.05 | 92 | 1007.0 | |
| 20260905164117 | 52 | 0.0 | 0.0 | 0.03 | 0.35 | 0.05 | 92 | 1006.9 | |
| 20260905163117 | 52 | 0.0 | 2.0 | 0.03 | 0.34 | 0.04 | 92 | 1006.5 | |
| 20260905162117 | 52 | 0.0 | 0.0 | 0.03 | 0.33 | 0.03 | 92 | 1006.3 | |
| 20260905161116 | 52 | 0.0 | 0.0 | 0.03 | 0.33 | 0.03 | 92 | 1006.1 | |
| 20260905160117 | 52 | 0.0 | 0.0 | 0.02 | 0.31 | 0.02 | 92 | 1006.0 | |
| 20260905155116 | 52 | 0.0 | 0.0 | 0.02 | 0.31 | 0.02 | 92 | 1005.7 | |
| 20260905154116 | 52 | 135 | 1.0 | 4.0 | 0.02 | 0.31 | 0.02 | 92 | 1005.6 |
| 20260905153116 | 52 | 0.0 | 1.0 | 0.01 | 0.31 | 0.01 | 92 | 1005.1 | |
| 20260905152117 | 52 | 0.0 | 1.0 | 0.00 | 0.30 | 0.00 | 92 | 1004.8 | |
| 20260905151137 | 52 | 135 | 1.0 | 3.0 | 0.00 | 0.30 | 0.00 | 92 | 1004.4 |
| 20260905150116 | 52 | 0.0 | 1.0 | 0.00 | 0.30 | 0.00 | 92 | 1004.1 | |
| 20260905145116 | 52 | 0.0 | 1.0 | 0.00 | 0.30 | 0.00 | 92 | 1003.7 | |
| 20260905144117 | 52 | 135 | 1.0 | 3.0 | 0.00 | 0.30 | 0.00 | 92 | 1003.3 |
| 20260905143117 | 52 | 0.0 | 1.0 | 0.00 | 0.30 | 0.00 | 92 | 1003.2 | |
| 20260905142136 | 52 | 0.0 | 2.0 | 0.00 | 0.30 | 0.00 | 92 | 1002.9 | |
| 20260905141117 | 52 | 113 | 1.0 | 4.0 | 0.02 | 0.30 | 0.00 | 92 | 1002.7 |
| 20260905140116 | 53 | 0.0 | 2.0 | 0.02 | 0.30 | 0.00 | 92 | 1002.5 | |
| 20260905135118 | 53 | 0.0 | 2.0 | 0.02 | 0.30 | 0.30 | 92 | 1002.2 | |
| 20260905134118 | 53 | 0.0 | 1.0 | 0.02 | 0.30 | 0.30 | 92 | 1002.0 | |
| 20260905133118 | 53 | 135 | 2.0 | 5.0 | 0.02 | 0.30 | 0.30 | 92 | 1001.6 |
| 20260905132118 | 53 | 0.0 | 0.0 | 0.02 | 0.30 | 0.30 | 92 | 1001.2 | |
| 20260905131118 | 52 | 0.0 | 0.0 | 0.00 | 0.28 | 0.28 | 92 | 1001.0 | |
| 20260905130138 | 52 | 0.0 | 0.0 | 0.00 | 0.28 | 0.28 | 92 | 1000.7 | |
| 20260905125138 | 52 | 0.0 | 0.0 | 0.00 | 0.28 | 0.28 | 92 | 1000.4 | |
| 20260905124118 | 52 | 0.0 | 3.0 | 0.00 | 0.28 | 0.28 | 92 | 1000.1 | |
| 20260905123138 | 52 | 0.0 | 3.0 | 0.00 | 0.28 | 0.28 | 92 | 999.9 | |
| 20260905122138 | 52 | 0.0 | 0.0 | 0.01 | 0.28 | 0.28 | 92 | 999.8 | |
| 20260905121118 | 52 | 0.0 | 3.0 | 0.01 | 0.28 | 0.28 | 92 | 999.4 | |
| 20260905120118 | 52 | 0.0 | 0.0 | 0.01 | 0.28 | 0.28 | 92 | 999.3 | |
| 20260905115119 | 53 | 0.0 | 2.0 | 0.01 | 0.28 | 0.28 | 92 | 998.9 | |
| 20260905114138 | 52 | 135 | 1.0 | 3.0 | 0.01 | 0.28 | 0.28 | 92 | 998.6 |
| 20260905113118 | 52 | 113 | 1.0 | 4.0 | 0.02 | 0.28 | 0.28 | 92 | 998.3 |
| 20260905112118 | 51 | 0.0 | 1.0 | 0.01 | 0.28 | 0.28 | 92 | 997.8 | |
| 20260905111159 | 51 | 158 | 1.0 | 4.0 | 0.01 | 0.28 | 0.28 | 92 | 997.6 |
| 20260905110118 | 51 | 225 | 3.0 | 8.0 | 0.01 | 0.28 | 0.28 | 92 | 997.3 |
| 20260905105138 | 51 | 0.0 | 1.0 | 0.01 | 0.28 | 0.28 | 92 | 996.9 | |
| 20260905104118 | 51 | 158 | 2.0 | 4.0 | 0.01 | 0.28 | 0.28 | 92 | 996.6 |
| 20260905103118 | 51 | 158 | 3.0 | 7.0 | 0.00 | 0.27 | 0.27 | 92 | 996.4 |
| 20260905102117 | 50 | 0.0 | 1.0 | 0.00 | 0.27 | 0.27 | 92 | 996.2 | |
| 20260905101118 | 50 | 0.0 | 3.0 | 0.00 | 0.27 | 0.27 | 92 | 996.0 | |
| 20260905100138 | 50 | 203 | 2.0 | 4.0 | 0.01 | 0.27 | 0.27 | 92 | 995.8 |
| 20260905095118 | 50 | 113 | 2.0 | 3.0 | 0.02 | 0.27 | 0.27 | 92 | 995.8 |
| 20260905094117 | 50 | 0.0 | 1.0 | 0.02 | 0.27 | 0.27 | 92 | 995.5 | |
| 20260905093118 | 50 | 0.0 | 1.0 | 0.02 | 0.27 | 0.27 | 92 | 995.5 | |
| 20260905092118 | 50 | 0.0 | 1.0 | 0.02 | 0.27 | 0.27 | 92 | 995.4 | |
| 20260905091118 | 50 | 113 | 1.0 | 3.0 | 0.02 | 0.27 | 0.27 | 92 | 995.3 |
| 20260905090118 | 50 | 0.0 | 1.0 | 0.01 | 0.26 | 0.26 | 92 | 995.1 | |
| 20260905085117 | 50 | 0.0 | 0.0 | 0.00 | 0.25 | 0.25 | 92 | 994.9 | |
| 20260905084138 | 50 | 0.0 | 0.0 | 0.00 | 0.25 | 0.25 | 92 | 994.7 | |
| 20260905083117 | 50 | 0.0 | 0.0 | 0.00 | 0.25 | 0.25 | 92 | 994.5 | |
| 20260905082118 | 50 | 0.0 | 0.0 | 0.00 | 0.25 | 0.25 | 92 | 994.1 | |
| 20260905081118 | 50 | 0.0 | 0.0 | 0.00 | 0.25 | 0.25 | 92 | 993.9 | |
| 20260905080118 | 50 | 0.0 | 1.0 | 0.00 | 0.25 | 0.25 | 92 | 993.7 | |
| 20260905075118 | 50 | 0.0 | 1.0 | 0.00 | 0.25 | 0.25 | 92 | 993.6 | |
| 20260905074117 | 50 | 0.0 | 1.0 | 0.00 | 0.25 | 0.25 | 92 | 993.4 | |
| 20260905073118 | 50 | 0.0 | 0.0 | 0.00 | 0.25 | 0.25 | 92 | 993.3 | |
| 20260905072117 | 51 | 0.0 | 1.0 | 0.00 | 0.25 | 0.25 | 92 | 993.2 | |
| 20260905071118 | 51 | 0.0 | 1.0 | 0.00 | 0.25 | 0.25 | 92 | 993.1 | |
| 20260905070118 | 51 | 0.0 | 0.0 | 0.00 | 0.25 | 0.25 | 92 | 993.1 | |
| 20260905065117 | 51 | 45 | 3.0 | 4.0 | 0.00 | 0.25 | 0.25 | 92 | 993.1 |
| 20260905064118 | 51 | 0.0 | 0.0 | 0.01 | 0.25 | 0.25 | 92 | 993.2 | |
| 20260905063117 | 52 | 0.0 | 0.0 | 0.03 | 0.25 | 0.25 | 92 | 993.3 | |
| 20260905062117 | 52 | 0.0 | 2.0 | 0.04 | 0.25 | 0.25 | 92 | 993.1 | |
| 20260905061117 | 53 | 0.0 | 1.0 | 0.05 | 0.25 | 0.25 | 92 | 993.0 | |
| 20260905060118 | 53 | 0.0 | 0.0 | 0.08 | 0.25 | 0.25 | 92 | 993.0 | |
| 20260905055117 | 52 | 0.0 | 1.0 | 0.13 | 0.25 | 0.25 | 92 | 993.0 | |
| 20260905054137 | 52 | 225 | 2.0 | 3.0 | 0.15 | 0.24 | 0.24 | 92 | 993.2 |
| 20260905053118 | 52 | 0.0 | 0.0 | 0.16 | 0.22 | 0.22 | 92 | 993.0 | |
| 20260905052117 | 52 | 0.0 | 0.0 | 0.17 | 0.21 | 0.21 | 92 | 993.0 | |
| 20260905051138 | 52 | 0.0 | 0.0 | 0.16 | 0.20 | 0.20 | 92 | 992.9 | |
| 20260905050117 | 52 | 0.0 | 0.0 | 0.14 | 0.17 | 0.17 | 92 | 992.9 | |
| 20260905045118 | 52 | 0.0 | 0.0 | 0.09 | 0.12 | 0.12 | 92 | 993.1 | |
| 20260905044118 | 52 | 0.0 | 0.0 | 0.06 | 0.09 | 0.09 | 92 | 993.0 | |
| 20260905043117 | 52 | 0.0 | 0.0 | 0.03 | 0.06 | 0.06 | 92 | 992.9 | |
| 20260905042118 | 52 | 0.0 | 0.0 | 0.02 | 0.05 | 0.05 | 92 | 992.9 | |
| 20260905041117 | 52 | 0.0 | 0.0 | 0.02 | 0.05 | 0.05 | 91 | 992.9 | |
| 20260905040117 | 52 | 0.0 | 0.0 | 0.00 | 0.03 | 0.03 | 91 | 993.0 | |
| 20260905035117 | 53 | 0.0 | 0.0 | 0.00 | 0.03 | 0.03 | 91 | 993.0 | |
| 20260905034117 | 53 | 0.0 | 0.0 | 0.00 | 0.03 | 0.03 | 91 | 993.1 | |
| 20260905033117 | 53 | 0.0 | 0.0 | 0.00 | 0.03 | 0.03 | 91 | 993.5 | |
| 20260905032117 | 52 | 0.0 | 0.0 | 0.00 | 0.03 | 0.03 | 91 | 993.5 | |
| 20260905031118 | 52 | 0.0 | 0.0 | 0.00 | 0.03 | 0.03 | 91 | 993.6 | |
| 20260905030118 | 52 | 0.0 | 0.0 | 0.00 | 0.03 | 0.03 | 91 | 993.7 | |
| 20260905025117 | 52 | 0.0 | 0.0 | 0.00 | 0.03 | 0.03 | 91 | 994.2 | |
| 20260905024118 | 52 | 0.0 | 0.0 | 0.00 | 0.03 | 0.03 | 91 | 994.4 | |
| 20260905023138 | 52 | 0.0 | 0.0 | 0.00 | 0.03 | 0.03 | 91 | 994.7 | |
| 20260905022117 | 52 | 0.0 | 0.0 | 0.00 | 0.03 | 0.03 | 91 | 995.1 | |
| 20260905021117 | 52 | 0.0 | 0.0 | 0.00 | 0.03 | 0.03 | 91 | 995.5 | |
| 20260905020117 | 52 | 0.0 | 0.0 | 0.00 | 0.03 | 0.03 | 90 | 995.9 | |
| 20260905015117 | 52 | 0.0 | 0.0 | 0.00 | 0.03 | 0.03 | 90 | 996.1 | |
| 20260905014118 | 52 | 0.0 | 0.0 | 0.00 | 0.03 | 0.03 | 90 | 996.2 | |
| 20260905013117 | 52 | 0.0 | 0.0 | 0.00 | 0.03 | 0.03 | 90 | 996.5 | |
| 20260905012117 | 52 | 0.0 | 0.0 | 0.01 | 0.03 | 0.03 | 90 | 996.6 | |
| 20260905011117 | 52 | 0.0 | 0.0 | 0.01 | 0.03 | 0.03 | 91 | 996.7 | |
| 20260905010118 | 52 | 0.0 | 1.0 | 0.01 | 0.03 | 0.03 | 91 | 997.0 | |
| 20260905005117 | 52 | 0.0 | 0.0 | 0.01 | 0.03 | 0.03 | 91 | 997.3 | |
| 20260905004138 | 52 | 0.0 | 0.0 | 0.01 | 0.03 | 0.03 | 91 | 997.7 | |
| 20260905003157 | 52 | 0.0 | 0.0 | 0.01 | 0.03 | 0.03 | 91 | 997.9 | |
| 20260905002137 | 52 | 0.0 | 0.0 | 0.00 | 0.02 | 0.02 | 91 | 997.9 | |
| 20260905001117 | 51 | 0.0 | 0.0 | 0.00 | 0.02 | 0.02 | 91 | 998.0 | |
| 20260905000117 | 51 | 0.0 | 0.0 | 0.00 | 0.02 | 0.02 | 91 | 998.2 | |
| 20260904235117 | 51 | 0.0 | 0.0 | 0.00 | 0.02 | 0.02 | 91 | 998.4 | |
| 20260904234117 | 50 | 0.0 | 0.0 | 0.00 | 0.02 | 0.02 | 91 | 998.7 | |
| 20260904233117 | 50 | 0.0 | 0.0 | 0.01 | 0.02 | 0.02 | 91 | 999.0 | |
| 20260904232138 | 50 | 0.0 | 0.0 | 0.01 | 0.02 | 0.02 | 91 | 999.2 | |
| 20260904231117 | 50 | 0.0 | 0.0 | 0.01 | 0.02 | 0.02 | 91 | 999.1 | |
| 20260904230117 | 50 | 0.0 | 0.0 | 0.02 | 0.02 | 0.02 | 91 | 999.4 | |
| 20260904225117 | 50 | 0.0 | 0.0 | 0.02 | 0.02 | 0.02 | 91 | 999.5 | |
| 20260904224118 | 49 | 0.0 | 0.0 | 0.02 | 0.02 | 0.02 | 90 | 999.5 |